KLM17C EHAM-EDDH

Flight info

Callsign KLM17C
Flight time 0h 40m
Altitude 31000
Route ANDIK M105 RIBSO RIBSO7A
Aircraft B738/M-SDE2E3FGHIRWXY/LB1

Departure

Time 2026-05-05 18:01
Airport Amsterdam Airport Schiphol (EHAM)

Arrival

Time 2026-05-05 18:42
Airport Hamburg Helmut Schmidt Airport (EDDH)
Time Latitude Longitude Altitude Speed Heading
2026-05-05 17:33 52.31073 4.75566 -3 ft 0 kts 147°
2026-05-05 17:50 52.31075 4.75564 -3 ft 2 kts 147°
2026-05-05 17:50 52.31095 4.75542 -1 ft 5 kts 140°
2026-05-05 17:50 52.31099 4.75473 -2 ft 2 kts 20°
2026-05-05 17:50 52.31089 4.75461 -2 ft 6 kts 58°
2026-05-05 17:51 52.31089 4.75460 -2 ft 0 kts 58°
2026-05-05 17:52 52.31091 4.75466 -2 ft 2 kts 54°
2026-05-05 17:53 52.31115 4.75492 -1 ft 6 kts 22°
2026-05-05 17:53 52.31155 4.75495 2 ft 6 kts 358°
2026-05-05 17:53 52.31196 4.75492 3 ft 6 kts 356°
2026-05-05 17:53 52.31244 4.75486 4 ft 8 kts 356°
2026-05-05 17:54 52.31307 4.75480 6 ft 10 kts 356°
2026-05-05 17:54 52.31391 4.75472 7 ft 13 kts 356°
2026-05-05 17:54 52.31424 4.75364 9 ft 13 kts 264°
2026-05-05 17:54 52.31421 4.75215 7 ft 16 kts 269°
2026-05-05 17:55 52.31415 4.75038 9 ft 16 kts 267°
2026-05-05 17:55 52.31410 4.74864 12 ft 15 kts 266°
2026-05-05 17:55 52.31404 4.74698 13 ft 14 kts 267°
2026-05-05 17:55 52.31364 4.74591 10 ft 12 kts 189°
2026-05-05 17:56 52.31337 4.74583 10 ft 7 kts 182°
2026-05-05 17:56 52.31391 4.74605 12 ft 0 kts 234°
2026-05-05 17:56 52.31394 4.74533 11 ft 13 kts 282°
2026-05-05 17:56 52.31395 4.74360 10 ft 18 kts 269°
2026-05-05 17:57 52.31379 4.74167 15 ft 17 kts 235°
2026-05-05 17:57 52.31270 4.74125 13 ft 16 kts 182°
2026-05-05 17:57 52.31148 4.74115 11 ft 20 kts 182°
2026-05-05 17:57 52.30994 4.74103 10 ft 24 kts 184°
2026-05-05 17:58 52.30810 4.74083 10 ft 29 kts 183°
2026-05-05 17:58 52.30601 4.74064 14 ft 31 kts 183°
2026-05-05 17:58 52.30405 4.74046 14 ft 20 kts 183°
2026-05-05 17:58 52.30311 4.74024 15 ft 14 kts 203°
2026-05-05 17:59 52.30228 4.73929 14 ft 15 kts 221°
2026-05-05 17:59 52.30210 4.73899 14 ft 0 kts 224°
2026-05-05 18:00 52.30206 4.73893 14 ft 2 kts 224°
2026-05-05 18:00 52.30192 4.73856 16 ft 6 kts 247°
2026-05-05 18:00 52.30197 4.73769 17 ft 10 kts 303°
2026-05-05 18:00 52.30296 4.73740 11 ft 20 kts
2026-05-05 18:01 52.30453 4.73762 14 ft 25 kts
2026-05-05 18:01 52.30914 4.73802 17 ft 111 kts
2026-05-05 18:01 52.31918 4.73924 219 ft 171 kts
2026-05-05 18:01 52.33203 4.73858 1030 ft 195 kts 360°
2026-05-05 18:02 52.34558 4.73881 2241 ft 194 kts 14°
2026-05-05 18:02 52.35813 4.74897 2936 ft 208 kts 31°
2026-05-05 18:02 52.37184 4.76089 3274 ft 235 kts 27°
2026-05-05 18:02 52.38482 4.77745 4088 ft 241 kts 48°
2026-05-05 18:03 52.39627 4.79837 4934 ft 248 kts 45°
2026-05-05 18:03 52.40827 4.81879 5870 ft 252 kts 44°
2026-05-05 18:03 52.42100 4.84010 6466 ft 268 kts 44°
2026-05-05 18:03 52.43596 4.85792 7345 ft 267 kts 19°
2026-05-05 18:04 52.45427 4.86285 8199 ft 270 kts 359°
2026-05-05 18:04 52.47325 4.86148 8994 ft 277 kts 355°
2026-05-05 18:04 52.49239 4.85915 9806 ft 283 kts 355°
2026-05-05 18:04 52.51243 4.85684 10332 ft 298 kts 355°
2026-05-05 18:05 52.53396 4.85919 10495 ft 326 kts 17°
2026-05-05 18:05 52.55358 4.87929 10920 ft 343 kts 46°
2026-05-05 18:05 52.56870 4.91019 11649 ft 349 kts 52°
2026-05-05 18:05 52.58355 4.94231 12402 ft 355 kts 51°
2026-05-05 18:06 52.59871 4.97487 13165 ft 359 kts 51°
2026-05-05 18:06 52.60894 4.99659 13615 ft 364 kts 51°
2026-05-05 18:06 52.62967 5.04032 14643 ft 365 kts 51°
2026-05-05 18:06 52.64545 5.07350 15309 ft 370 kts 52°
2026-05-05 18:07 52.66152 5.10731 15948 ft 376 kts 51°
2026-05-05 18:07 52.67776 5.14152 16587 ft 381 kts 51°
2026-05-05 18:07 52.69400 5.17577 17177 ft 387 kts 52°
2026-05-05 18:07 52.71058 5.21079 18010 ft 387 kts 52°
2026-05-05 18:08 52.72723 5.24601 18605 ft 391 kts 52°
2026-05-05 18:08 52.74258 5.28303 19184 ft 394 kts 66°
2026-05-05 18:08 52.75243 5.32560 19712 ft 398 kts 72°
2026-05-05 18:08 52.76148 5.36893 20320 ft 400 kts 72°
2026-05-05 18:09 52.77050 5.41261 20955 ft 402 kts 72°
2026-05-05 18:09 52.77966 5.45664 21456 ft 407 kts 72°
2026-05-05 18:09 52.78893 5.50075 22100 ft 408 kts 71°
2026-05-05 18:09 52.79838 5.54540 22547 ft 414 kts 71°
2026-05-05 18:10 52.80797 5.59049 23117 ft 417 kts 71°
2026-05-05 18:10 52.81765 5.63602 23508 ft 423 kts 71°
2026-05-05 18:10 52.82731 5.68141 23960 ft 425 kts 72°
2026-05-05 18:10 52.83723 5.72795 24258 ft 432 kts 72°
2026-05-05 18:11 52.84725 5.77505 24747 ft 432 kts 72°
2026-05-05 18:11 52.85726 5.82217 25208 ft 435 kts 72°
2026-05-05 18:11 52.86728 5.86951 25642 ft 437 kts 72°
2026-05-05 18:11 52.87734 5.91715 26016 ft 440 kts 72°
2026-05-05 18:12 52.88743 5.96509 26511 ft 440 kts 72°
2026-05-05 18:12 52.89749 6.01296 26930 ft 442 kts 72°
2026-05-05 18:12 52.90762 6.06133 26904 ft 444 kts 72°
2026-05-05 18:12 52.91757 6.10893 26905 ft 439 kts 73°
2026-05-05 18:13 52.92753 6.15665 26913 ft 437 kts 73°
2026-05-05 18:13 52.93745 6.20433 26925 ft 438 kts 73°
2026-05-05 18:13 52.94740 6.25232 26928 ft 439 kts 73°
2026-05-05 18:13 52.95725 6.29991 27305 ft 432 kts 73°
2026-05-05 18:14 52.96698 6.34699 27842 ft 429 kts 73°
2026-05-05 18:14 52.97661 6.39372 28381 ft 426 kts 73°
2026-05-05 18:14 52.98602 6.43950 28902 ft 423 kts 74°
2026-05-05 18:14 52.99547 6.48558 29455 ft 419 kts 74°
2026-05-05 18:15 53.00482 6.53123 30004 ft 415 kts 74°
2026-05-05 18:15 53.01405 6.57648 30475 ft 411 kts 74°
2026-05-05 18:15 53.02318 6.62128 30886 ft 409 kts 74°
2026-05-05 18:16 53.04178 6.71320 30926 ft 428 kts 74°
2026-05-05 18:16 53.06094 6.80821 30941 ft 444 kts 74°
2026-05-05 18:17 53.08067 6.90620 30915 ft 447 kts 74°
2026-05-05 18:17 53.09707 6.98810 30903 ft 447 kts 74°
2026-05-05 18:18 53.11981 7.10222 30896 ft 444 kts 74°
2026-05-05 18:18 53.13586 7.18324 30886 ft 442 kts 74°
2026-05-05 18:19 53.15478 7.28028 30904 ft 440 kts 75°
2026-05-05 18:19 53.17374 7.37828 30307 ft 450 kts 75°
2026-05-05 18:19 53.18338 7.42779 29812 ft 449 kts 74°
2026-05-05 18:20 53.19301 7.47719 29245 ft 446 kts 74°
2026-05-05 18:20 53.20255 7.52621 28678 ft 443 kts 74°
2026-05-05 18:20 53.21201 7.57500 28144 ft 441 kts 74°
2026-05-05 18:20 53.22143 7.62377 27600 ft 439 kts 74°
2026-05-05 18:21 53.23079 7.67221 27075 ft 437 kts 74°
2026-05-05 18:21 53.24015 7.72069 26555 ft 440 kts 73°
2026-05-05 18:21 53.24958 7.76963 26057 ft 445 kts 73°
2026-05-05 18:21 53.25905 7.81893 25551 ft 445 kts 73°
2026-05-05 18:22 53.26833 7.86730 25082 ft 441 kts 73°
2026-05-05 18:22 53.27748 7.91606 24586 ft 437 kts 77°
2026-05-05 18:22 53.28104 7.96604 24086 ft 429 kts 95°
2026-05-05 18:22 53.27538 8.01427 23624 ft 420 kts 114°
2026-05-05 18:23 53.26257 8.05770 23134 ft 414 kts 118°
2026-05-05 18:23 53.25411 8.10293 22565 ft 417 kts 99°
2026-05-05 18:23 53.25463 8.15112 22036 ft 416 kts 80°
2026-05-05 18:23 53.26419 8.19666 21519 ft 416 kts 62°
2026-05-05 18:24 53.27972 8.23765 21011 ft 417 kts 55°
2026-05-05 18:24 53.29664 8.27708 20505 ft 415 kts 54°
2026-05-05 18:24 53.31358 8.31503 20072 ft 410 kts 52°
2026-05-05 18:24 53.33170 8.35245 19160 ft 417 kts 50°
2026-05-05 18:25 53.35058 8.38969 18324 ft 421 kts 50°
2026-05-05 18:25 53.36353 8.41503 17694 ft 424 kts 49°
2026-05-05 18:25 53.38882 8.46487 16473 ft 420 kts 50°
2026-05-05 18:25 53.40735 8.50187 15711 ft 407 kts 50°
2026-05-05 18:26 53.42524 8.53792 14962 ft 397 kts 50°
2026-05-05 18:26 53.44262 8.57318 14250 ft 388 kts 50°
2026-05-05 18:26 53.45960 8.60778 13564 ft 380 kts 50°
2026-05-05 18:26 53.47618 8.64166 13055 ft 372 kts 50°
2026-05-05 18:27 53.49236 8.67476 12539 ft 369 kts 50°
2026-05-05 18:27 53.50859 8.70801 12031 ft 367 kts 50°
2026-05-05 18:27 53.52476 8.74119 11521 ft 365 kts 50°
2026-05-05 18:27 53.54083 8.77421 11027 ft 363 kts 50°
2026-05-05 18:28 53.56759 8.84459 10222 ft 354 kts 63°
2026-05-05 18:28 53.57853 8.88110 9988 ft 344 kts 63°
2026-05-05 18:28 53.58900 8.91649 9910 ft 331 kts 63°
2026-05-05 18:29 53.59904 8.95059 9891 ft 317 kts 63°
2026-05-05 18:29 53.60860 8.98322 9884 ft 303 kts 64°
2026-05-05 18:29 53.61773 9.01446 9881 ft 290 kts 64°
2026-05-05 18:29 53.62654 9.04426 9887 ft 286 kts 60°
2026-05-05 18:30 53.63839 9.07273 9923 ft 310 kts 57°
2026-05-05 18:30 53.64847 9.10523 9891 ft 310 kts 70°
2026-05-05 18:30 53.65242 9.14035 9887 ft 300 kts 91°
2026-05-05 18:30 53.64952 9.17498 9498 ft 303 kts 110°
2026-05-05 18:31 53.63975 9.20678 8981 ft 310 kts 129°
2026-05-05 18:31 53.62445 9.23259 8497 ft 312 kts 141°
2026-05-05 18:31 53.60767 9.25531 7986 ft 314 kts 143°
2026-05-05 18:31 53.59035 9.27792 7483 ft 315 kts 143°
2026-05-05 18:32 53.57286 9.30053 6984 ft 317 kts 143°
2026-05-05 18:32 53.55525 9.32304 6498 ft 318 kts 143°
2026-05-05 18:32 53.53758 9.34543 5992 ft 316 kts 143°
2026-05-05 18:32 53.52017 9.36701 5486 ft 306 kts 143°
2026-05-05 18:33 53.50342 9.38746 5056 ft 297 kts 143°
2026-05-05 18:33 53.48683 9.40737 4619 ft 289 kts 143°
2026-05-05 18:33 53.47063 9.42656 4170 ft 281 kts 142°
2026-05-05 18:33 53.45701 9.44857 3997 ft 262 kts 122°
2026-05-05 18:34 53.45009 9.47519 3967 ft 239 kts 98°
2026-05-05 18:34 53.44959 9.50193 3993 ft 225 kts 85°
2026-05-05 18:34 53.45074 9.52816 3989 ft 225 kts 84°
2026-05-05 18:34 53.45202 9.55442 4004 ft 226 kts 84°
2026-05-05 18:35 53.45335 9.58084 3990 ft 228 kts 84°
2026-05-05 18:35 53.45470 9.60733 3990 ft 228 kts 84°
2026-05-05 18:35 53.45668 9.63318 3971 ft 223 kts 71°
2026-05-05 18:35 53.46506 9.65354 4009 ft 206 kts 45°
2026-05-05 18:36 53.47442 9.67097 3983 ft 195 kts 51°
2026-05-05 18:36 53.48289 9.68857 3982 ft 191 kts 51°
2026-05-05 18:36 53.49104 9.70542 3972 ft 180 kts 51°
2026-05-05 18:36 53.49900 9.72171 3733 ft 178 kts 51°
2026-05-05 18:37 53.50682 9.73764 3497 ft 175 kts 51°
2026-05-05 18:37 53.51449 9.75324 3271 ft 172 kts 50°
2026-05-05 18:37 53.52207 9.76865 3042 ft 176 kts 50°
2026-05-05 18:37 53.53001 9.78479 2803 ft 179 kts 50°
2026-05-05 18:38 53.53795 9.80090 2558 ft 178 kts 50°
2026-05-05 18:38 53.54573 9.81671 2312 ft 171 kts 50°
2026-05-05 18:38 53.55326 9.83198 2094 ft 169 kts 50°
2026-05-05 18:38 53.56081 9.84732 1872 ft 168 kts 50°
2026-05-05 18:39 53.56806 9.86203 1641 ft 157 kts 51°
2026-05-05 18:39 53.57469 9.87547 1443 ft 146 kts 50°
2026-05-05 18:39 53.58104 9.88835 1265 ft 138 kts 51°
2026-05-05 18:39 53.58707 9.90056 1126 ft 136 kts 51°
2026-05-05 18:40 53.59324 9.91306 877 ft 139 kts 51°
2026-05-05 18:40 53.59945 9.92565 689 ft 142 kts 50°
2026-05-05 18:40 53.60563 9.93851 526 ft 141 kts 50°
2026-05-05 18:40 53.61205 9.95101 331 ft 144 kts 49°
2026-05-05 18:41 53.61845 9.96411 123 ft 142 kts 51°
2026-05-05 18:41 53.62461 9.97663 41 ft 135 kts 50°
2026-05-05 18:41 53.62993 9.98733 43 ft 103 kts 51°
2026-05-05 18:41 53.63375 9.99508 45 ft 68 kts 50°
2026-05-05 18:42 53.63601 9.99968 45 ft 33 kts 50°
2026-05-05 18:42 53.63664 10.00116 47 ft 0 kts 86°
2026-05-05 18:42 53.63657 10.00182 43 ft 1 kts 122°
2026-05-05 18:43 53.63600 10.00251 44 ft 19 kts 144°
2026-05-05 18:43 53.63569 10.00284 46 ft 0 kts 162°
2026-05-05 18:43 53.63568 10.00284 46 ft 0 kts 162°
2026-05-05 18:44 53.63551 10.00286 46 ft 5 kts 185°
2026-05-05 18:44 53.63503 10.00231 45 ft 10 kts 206°
2026-05-05 18:44 53.63432 10.00224 43 ft 10 kts 178°
2026-05-05 18:44 53.63360 10.00229 43 ft 10 kts 178°
2026-05-05 18:45 53.63292 10.00235 45 ft 10 kts 175°
2026-05-05 18:45 53.63225 10.00245 45 ft 10 kts 175°
2026-05-05 18:45 53.63159 10.00255 43 ft 9 kts 175°
2026-05-05 18:45 53.63110 10.00283 43 ft 4 kts 117°
2026-05-05 18:46 53.63112 10.00331 45 ft 4 kts 81°
2026-05-05 18:46 53.63114 10.00377 45 ft 0 kts 88°